START_TIME,STEP,MOV.,P11,t_acc.,P23,t_acc.,P27,t_acc.,A4,t_acc.
1981-08-24 18:00:24.130 ,1,0,0.,4.8,0.,4.8,0.,4.8,0.,4.8
1981-08-24 18:00:28.930 ,1,0,0.,4.8,0.,4.8,0.,4.8,0.,4.8
1981-08-24 18:00:33.730 ,1,0,0.,4.8,0.,4.8,0.,4.8,0.,4.8
1981-08-24 18:00:38.530 ,1,0,0.,4.8,0.,4.8,0.,4.8,0.,4.8
1981-08-24 18:00:43.330 ,1,0,0.,4.8,0.,4.8,0.,4.8,0.,4.8
1981-08-24 18:00:48.130 ,2,0,0.,4.8,0.,4.8,0.,4.8,0.,4.8
1981-08-24 18:00:52.930 ,2,0,0.,4.8,0.,4.8,0.,4.8,0.,4.8
1981-08-24 18:00:57.730 ,2,0,0.,4.8,0.,4.8,0.,4.8,0.,4.8
1981-08-24 18:01:02.530 ,2,0,0.,4.8,0.,4.8,0.,4.8,0.,4.8
1981-08-24 18:01:07.330 ,2,0,0.,4.8,0.,4.8,0.,4.8,0.,4.8
1981-08-24 18:01:12.130 ,3,0,0.,4.8,0.,4.8,0.,4.8,0.,4.8
1981-08-24 18:01:16.930 ,3,0,0.,4.8,0.,4.8,0.,4.8,0.,4.8
1981-08-24 18:01:21.730 ,3,0,0.,4.8,0.,4.8,0.,4.8,0.,4.8
1981-08-24 18:01:26.530 ,3,0,0.,4.8,0.,4.8,0.,4.8,0.,4.8
1981-08-24 18:01:31.330 ,3,0,0.,4.8,0.,4.8,0.,4.8,0.,4.8
1981-08-24 18:01:36.130 ,4,0,0.,4.8,0.,4.8,0.,4.8,0.,4.8
1981-08-24 18:01:40.930 ,4,0,0.,4.8,0.,4.8,0.,4.8,0.,4.8
1981-08-24 18:01:45.730 ,4,0,0.,4.8,0.,4.8,0.,4.8,0.,4.8
1981-08-24 18:01:50.530 ,4,0,0.,4.8,0.,4.8,0.,4.8,0.,4.8
1981-08-24 18:01:55.330 ,4,0,0.,4.8,0.,4.8,0.,4.8,0.,4.8
1981-08-24 18:02:00.130 ,5,0,0.,4.8,0.,4.8,0.,4.8,0.,4.8
1981-08-24 18:02:04.930 ,5,0,0.,4.8,0.,4.8,0.,4.8,0.,4.8
1981-08-24 18:02:09.730 ,5,0,0.,4.8,0.,4.8,0.,4.8,0.,4.8
1981-08-24 18:02:14.530 ,5,0,0.,4.8,0.,4.8,0.,4.8,0.,4.8
1981-08-24 18:02:19.330 ,5,0,0.,4.8,0.,4.8,0.,4.8,0.,4.8
1981-08-24 18:02:24.130 ,6,0,0.,4.8,0.,4.8,0.,4.8,0.,4.8
1981-08-24 18:02:28.930 ,6,0,0.,4.8,0.,4.8,0.,4.8,0.,4.8
1981-08-24 18:02:33.730 ,6,0,0.,4.8,0.,4.8,0.,4.8,0.,4.8
1981-08-24 18:02:38.530 ,6,0,0.,4.8,0.,4.8,0.,4.8,0.,4.8
1981-08-24 18:02:43.330 ,6,0,0.,4.8,0.,4.8,0.,4.8,0.,4.8
1981-08-24 18:02:48.130 ,7,0,0.,4.8,0.,4.8,0.,4.8,0.,4.8
1981-08-24 18:02:52.930 ,7,0,0.,4.8,0.,4.8,0.,4.8,0.,4.8
1981-08-24 18:02:57.730 ,7,0,0.,4.8,0.,4.8,0.,4.8,0.,4.8
1981-08-24 18:03:02.530 ,7,0,0.,4.8,0.,4.8,0.,4.8,0.,4.8
1981-08-24 18:03:07.330 ,7,0,0.,4.8,0.,4.8,0.,4.8,0.,4.8
1981-08-24 18:03:12.130 ,7,0,0.,4.8,0.,4.8,0.,4.8,0.,4.8
1981-08-24 18:03:16.930 ,7,0,0.,4.8,0.,4.8,0.,4.8,0.,4.8
1981-08-24 18:03:21.730 ,7,0,0.,4.8,0.,4.8,0.,4.8,0.,4.8
1981-08-24 18:03:26.530 ,7,0,0.,4.8,0.,4.8,0.,4.8,0.,4.8
1981-08-24 18:03:31.330 ,7,0,0.,4.8,0.,4.8,0.,4.8,0.,4.8
1981-08-24 18:03:36.130 ,7,0,0.,4.8,0.,4.8,0.,4.8,0.,4.8
1981-08-24 18:03:40.930 ,7,0,0.,4.8,0.,4.8,0.,4.8,0.,4.8
1981-08-24 18:03:45.730 ,7,0,0.,4.8,0.,4.8,0.,4.8,0.,4.8
1981-08-24 18:03:50.530 ,7,0,0.,4.8,0.,4.8,0.,4.8,0.,4.8
1981-08-24 18:03:55.330 ,7,0,0.,4.8,0.,4.8,0.,4.8,0.,4.8
1981-08-24 18:04:00.130 ,6,0,0.,4.8,0.,4.8,0.,4.8,0.,4.8
1981-08-24 18:04:04.930 ,6,0,0.,4.8,0.,4.8,0.,4.8,0.,4.8
1981-08-24 18:04:09.730 ,6,0,0.,4.8,0.,4.8,0.,4.8,0.,4.8
1981-08-24 18:04:14.530 ,6,0,0.,4.8,0.,4.8,0.,4.8,0.,4.8
1981-08-24 18:04:19.330 ,6,0,0.,4.8,0.,4.8,0.,4.8,0.,4.8
1981-08-24 18:04:24.130 ,6,0,0.,4.8,0.,4.8,0.,4.8,0.,4.8
1981-08-24 18:04:28.930 ,6,0,0.,4.8,0.,4.8,0.,4.8,0.,4.8
1981-08-24 18:04:33.730 ,6,0,0.,4.8,0.,4.8,0.,4.8,0.,4.8
1981-08-24 18:04:38.530 ,6,0,0.,4.8,0.,4.8,0.,4.8,0.,4.8
1981-08-24 18:04:43.330 ,6,0,0.,4.8,0.,4.8,0.,4.8,0.,4.8
1981-08-24 18:04:48.130 ,5,0,0.,4.8,0.,4.8,0.,4.8,0.,4.8
1981-08-24 18:04:52.930 ,5,0,0.,4.8,0.,4.8,0.,4.8,0.,4.8
1981-08-24 18:04:57.730 ,5,0,0.,4.8,0.,4.8,0.,4.8,0.,4.8
1981-08-24 18:05:02.530 ,5,0,0.,4.8,0.,4.8,0.,4.8,0.,4.8
1981-08-24 18:05:07.330 ,5,0,0.,4.8,0.,4.8,0.,4.8,0.,4.8
1981-08-24 18:05:12.130 ,5,0,0.,4.8,0.,4.8,0.,4.8,0.,4.8
1981-08-24 18:05:16.930 ,5,0,0.,4.8,0.,4.8,0.,4.8,0.,4.8
1981-08-24 18:05:21.730 ,5,0,0.,4.8,0.,4.8,0.,4.8,0.,4.8
1981-08-24 18:05:26.530 ,5,0,0.,4.8,0.,4.8,0.,4.8,0.,4.8
1981-08-24 18:05:31.330 ,5,0,0.,4.8,0.,4.8,0.,4.8,0.,4.8
1981-08-24 18:05:36.130 ,4,0,0.,4.8,0.,4.8,0.,4.8,0.,4.8
1981-08-24 18:05:40.930 ,4,0,0.,4.8,0.,4.8,0.,4.8,0.,4.8
1981-08-24 18:05:45.730 ,4,0,0.,4.8,0.,4.8,0.,4.8,0.,4.8
1981-08-24 18:05:50.530 ,4,0,0.,4.8,0.,4.8,0.,4.8,0.,4.8
1981-08-24 18:05:55.330 ,4,0,0.,4.8,0.,4.8,0.,4.8,0.,4.8
1981-08-24 18:06:00.130 ,4,0,0.,4.8,0.,4.8,0.,4.8,0.,4.8
1981-08-24 18:06:04.930 ,4,0,0.,4.8,0.,4.8,0.,4.8,0.,4.8
1981-08-24 18:06:09.730 ,4,0,0.,4.8,0.,4.8,0.,4.8,0.,4.8
1981-08-24 18:06:14.530 ,4,0,0.,4.8,0.,4.8,0.,4.8,0.,4.8
1981-08-24 18:06:19.330 ,4,0,0.,4.8,0.,4.8,0.,4.8,0.,4.8
1981-08-24 18:06:24.130 ,3,0,0.,4.8,0.,4.8,0.,4.8,0.,4.8
1981-08-24 18:06:28.930 ,3,0,0.,4.8,0.,4.8,0.,4.8,0.,4.8
1981-08-24 18:06:33.730 ,3,0,0.,4.8,0.,4.8,0.,4.8,0.,4.8
1981-08-24 18:06:38.530 ,3,0,0.,4.8,0.,4.8,0.,4.8,0.,4.8
1981-08-24 18:06:43.330 ,3,0,0.,4.8,0.,4.8,0.,4.8,0.,4.8
1981-08-24 18:06:48.130 ,3,0,0.,4.8,0.,4.8,0.,4.8,0.,4.8
1981-08-24 18:06:52.930 ,3,0,0.,4.8,0.,4.8,0.,4.8,0.,4.8
1981-08-24 18:06:57.730 ,3,0,0.,4.8,0.,4.8,0.,4.8,0.,4.8
1981-08-24 18:07:02.530 ,3,0,0.,4.8,0.,4.8,0.,4.8,0.,4.8
1981-08-24 18:07:07.330 ,3,0,0.,4.8,0.,4.8,0.,4.8,0.,4.8
1981-08-24 18:07:12.130 ,2,0,0.,4.8,0.,4.8,0.,4.8,0.,4.8
1981-08-24 18:07:16.930 ,2,0,0.,4.8,0.,4.8,0.,4.8,0.,4.8
1981-08-24 18:07:21.730 ,2,0,0.,4.8,0.,4.8,0.,4.8,0.,4.8
1981-08-24 18:07:26.530 ,2,0,0.,4.8,0.,4.8,0.,4.8,0.,4.8
1981-08-24 18:07:31.330 ,2,0,0.,4.8,0.,4.8,0.,4.8,0.,4.8
1981-08-24 18:07:36.130 ,2,0,0.,4.8,0.,4.8,0.,4.8,0.,4.8
1981-08-24 18:07:40.930 ,2,0,0.,4.8,0.,4.8,0.,4.8,0.,4.8
1981-08-24 18:07:45.730 ,2,0,0.,4.8,0.,4.8,0.,4.8,0.,4.8
1981-08-24 18:07:50.530 ,2,0,0.,4.8,0.,4.8,0.,4.8,0.,4.8
1981-08-24 18:07:55.330 ,2,0,0.,4.8,0.,4.8,0.,4.8,0.,4.8
1981-08-24 18:08:00.130 ,1,0,0.,4.8,0.,4.8,0.,4.8,0.,4.8
1981-08-24 18:08:04.930 ,1,0,0.,4.8,0.,4.8,0.,4.8,0.,4.8
1981-08-24 18:08:09.730 ,1,0,0.,4.8,0.,4.8,0.,4.8,0.,4.8
1981-08-24 18:08:14.530 ,1,0,0.,4.8,0.,4.8,0.,4.8,0.,4.8
1981-08-24 18:08:19.330 ,1,0,0.,4.8,0.,4.8,0.,4.8,0.,4.8
1981-08-24 18:08:24.130 ,1,0,0.,4.8,0.,4.8,0.,4.8,0.,4.8
1981-08-24 18:08:28.930 ,1,0,0.,4.8,0.,4.8,0.,4.8,0.,4.8
1981-08-24 18:08:33.730 ,1,0,0.,4.8,0.,4.8,0.,4.8,0.,4.8
1981-08-24 18:08:38.530 ,1,0,0.,4.8,0.,4.8,0.,4.8,0.,4.8
1981-08-24 18:08:43.330 ,1,0,0.,4.8,0.,4.8,0.,4.8,0.,4.8
1981-08-24 18:08:48.130 ,0,0,0.,4.8,0.,4.8,0.,4.8,0.,4.8
1981-08-24 18:08:52.930 ,0,0,0.,4.8,0.,4.8,0.,4.8,0.,4.8
1981-08-24 18:08:57.730 ,0,0,0.,4.8,0.,4.8,0.,4.8,0.,4.8
1981-08-24 18:09:02.530 ,0,0,0.,4.8,0.,4.8,0.,4.8,0.,4.8
1981-08-24 18:09:07.330 ,0,0,0.,4.8,0.,4.8,0.,4.8,0.,4.8
1981-08-24 18:09:12.130 ,0,0,0.,4.8,0.,4.8,0.,4.8,0.,4.8
1981-08-24 18:09:16.930 ,0,0,0.,4.8,0.,4.8,0.,4.8,0.,4.8
1981-08-24 18:09:21.730 ,0,0,0.,4.8,0.,4.8,0.,4.8,0.,4.8
1981-08-24 18:09:26.530 ,0,0,0.,4.8,0.,4.8,0.,4.8,0.,4.8
1981-08-24 18:09:31.330 ,0,0,0.,4.8,0.,4.8,0.,4.8,0.,4.8
1981-08-24 18:09:36.130 ,0,0,0.,4.8,0.,4.8,0.,4.8,0.,4.8
1981-08-24 18:09:40.930 ,0,0,0.,4.8,0.,4.8,0.,4.8,0.,4.8
1981-08-24 18:09:45.730 ,0,0,0.,4.8,0.,4.8,0.,4.8,0.,4.8
1981-08-24 18:09:50.530 ,0,0,0.,4.8,0.,4.8,0.,4.8,0.,4.8
1981-08-24 18:09:55.330 ,0,0,0.,4.8,0.,4.8,0.,4.8,0.,4.8
1981-08-24 18:10:00.130 ,0,0,0.,4.8,0.,4.8,0.,4.8,0.,4.8
1981-08-24 18:10:04.930 ,0,0,0.,4.8,0.,4.8,0.,4.8,0.,4.8
1981-08-24 18:10:09.730 ,0,0,0.,4.8,0.,4.8,0.,4.8,0.,4.8
1981-08-24 18:10:14.530 ,0,0,0.,4.8,0.,4.8,0.,4.8,0.,4.8
1981-08-24 18:10:19.330 ,0,0,0.,4.8,0.,4.8,0.,4.8,0.,4.8
1981-08-24 18:10:24.130 ,1,0,0.,4.8,0.,4.8,0.,4.8,0.,4.8
1981-08-24 18:10:28.930 ,1,0,0.,4.8,0.,4.8,0.,4.8,0.,4.8
1981-08-24 18:10:33.730 ,1,0,0.,4.8,0.,4.8,0.,4.8,0.,4.8
1981-08-24 18:10:38.530 ,1,0,0.,4.8,0.,4.8,0.,4.8,0.,4.8
1981-08-24 18:10:43.330 ,1,0,0.,4.8,0.,4.8,0.,4.8,0.,4.8
1981-08-24 18:10:48.130 ,1,0,0.,4.8,0.,4.8,0.,4.8,0.,4.8
1981-08-24 18:10:52.930 ,1,0,0.,4.8,0.,4.8,0.,4.8,0.,4.8
1981-08-24 18:10:57.730 ,1,0,0.,4.8,0.,4.8,0.,4.8,0.,4.8
1981-08-24 18:11:02.530 ,1,0,0.,4.8,0.,4.8,0.,4.8,0.,4.8
1981-08-24 18:11:07.330 ,1,0,0.,4.8,0.,4.8,0.,4.8,0.,4.8
1981-08-24 18:11:12.130 ,2,0,0.,4.8,0.,4.8,0.,4.8,0.,4.8
1981-08-24 18:11:16.930 ,2,0,0.,4.8,0.,4.8,0.,4.8,0.,4.8
1981-08-24 18:11:21.730 ,2,0,0.,4.8,0.,4.8,0.,4.8,0.,4.8
1981-08-24 18:11:26.530 ,2,0,0.,4.8,0.,4.8,0.,4.8,0.,4.8
1981-08-24 18:11:31.330 ,2,0,0.,4.8,0.,4.8,0.,4.8,0.,4.8
1981-08-24 18:11:36.130 ,2,0,0.,4.8,0.,4.8,0.,4.8,0.,4.8
1981-08-24 18:11:40.930 ,2,0,0.,4.8,0.,4.8,0.,4.8,0.,4.8
1981-08-24 18:11:45.730 ,2,0,0.,4.8,0.,4.8,0.,4.8,0.,4.8
1981-08-24 18:11:50.530 ,2,0,0.,4.8,0.,4.8,0.,4.8,0.,4.8
1981-08-24 18:11:55.330 ,2,0,0.,4.8,0.,4.8,0.,4.8,0.,4.8
1981-08-24 18:12:00.130 ,3,0,0.,4.8,0.,4.8,0.,4.8,0.,4.8
1981-08-24 18:12:04.930 ,3,0,0.,4.8,0.,4.8,0.,4.8,0.,4.8
1981-08-24 18:12:09.730 ,3,0,0.,4.8,0.,4.8,0.,4.8,0.,4.8
1981-08-24 18:12:14.530 ,3,0,0.,4.8,0.,4.8,0.,4.8,0.,4.8
1981-08-24 18:12:19.330 ,3,0,0.,4.8,0.,4.8,0.,4.8,0.,4.8
1981-08-24 18:12:24.130 ,3,0,0.,4.8,0.,4.8,0.,4.8,1.,4.8
1981-08-24 18:12:28.930 ,3,0,0.,4.8,0.,4.8,0.,4.8,0.,4.8
1981-08-24 18:12:33.730 ,3,0,0.,4.8,0.,4.8,0.,4.8,0.,4.8
1981-08-24 18:12:38.530 ,3,0,0.,4.8,0.,4.8,0.,4.8,0.,4.8
1981-08-24 18:12:43.330 ,3,0,0.,4.8,0.,4.8,0.,4.8,0.,4.8
1981-08-24 18:12:48.130 ,4,0,0.,4.8,0.,4.8,0.,4.8,0.,4.8
1981-08-24 18:12:52.930 ,4,0,0.,4.8,0.,4.8,0.,4.8,0.,4.8
1981-08-24 18:12:57.730 ,4,0,0.,4.8,0.,4.8,0.,4.8,0.,4.8
1981-08-24 18:13:02.530 ,4,0,0.,4.8,0.,4.8,0.,4.8,0.,4.8
1981-08-24 18:13:07.330 ,4,0,0.,4.8,0.,4.8,0.,4.8,0.,4.8
1981-08-24 18:13:12.130 ,4,0,0.,4.8,0.,4.8,0.,4.8,0.,4.8
1981-08-24 18:13:16.930 ,4,0,0.,4.8,0.,4.8,0.,4.8,0.,4.8
1981-08-24 18:13:21.730 ,4,0,0.,4.8,0.,4.8,0.,4.8,0.,4.8
1981-08-24 18:13:26.530 ,4,0,0.,4.8,0.,4.8,0.,4.8,0.,4.8
1981-08-24 18:13:31.330 ,4,0,0.,4.8,0.,4.8,0.,4.8,0.,4.8
1981-08-24 18:13:36.130 ,5,0,0.,4.8,0.,4.8,0.,4.8,0.,4.8
1981-08-24 18:13:40.930 ,5,0,0.,4.8,0.,4.8,0.,4.8,0.,4.8
1981-08-24 18:13:45.730 ,5,0,0.,4.8,0.,4.8,0.,4.8,0.,4.8
1981-08-24 18:13:50.530 ,5,0,0.,4.8,0.,4.8,0.,4.8,0.,4.8
1981-08-24 18:13:55.330 ,5,0,0.,4.8,0.,4.8,0.,4.8,0.,4.8
1981-08-24 18:14:00.130 ,5,0,0.,4.8,0.,4.8,0.,4.8,0.,4.8
1981-08-24 18:14:04.930 ,5,0,0.,4.8,0.,4.8,0.,4.8,0.,4.8
1981-08-24 18:14:09.730 ,5,0,0.,4.8,0.,4.8,0.,4.8,0.,4.8
1981-08-24 18:14:14.530 ,5,0,0.,4.8,0.,4.8,0.,4.8,0.,4.8
1981-08-24 18:14:19.330 ,5,0,0.,4.8,0.,4.8,0.,4.8,0.,4.8
1981-08-24 18:14:24.130 ,6,0,0.,4.8,0.,4.8,0.,4.8,0.,4.8
1981-08-24 18:14:28.930 ,6,0,0.,4.8,0.,4.8,0.,4.8,0.,4.8
1981-08-24 18:14:33.730 ,6,0,0.,4.8,0.,4.8,0.,4.8,0.,4.8
1981-08-24 18:14:38.530 ,6,0,0.,4.8,0.,4.8,0.,4.8,0.,4.8
1981-08-24 18:14:43.330 ,6,0,0.,4.8,0.,4.8,0.,4.8,0.,4.8
1981-08-24 18:14:48.130 ,6,0,0.,4.8,0.,4.8,0.,4.8,0.,4.8
1981-08-24 18:14:52.930 ,6,0,0.,4.8,0.,4.8,0.,4.8,0.,4.8
1981-08-24 18:14:57.730 ,6,0,0.,4.8,0.,4.8,0.,4.8,0.,4.8
1981-08-24 18:15:02.530 ,6,0,0.,4.8,0.,4.8,0.,4.8,0.,4.8
1981-08-24 18:15:07.330 ,6,0,0.,4.8,0.,4.8,0.,4.8,0.,4.8
1981-08-24 18:15:12.130 ,7,0,0.,4.8,0.,4.8,0.,4.8,0.,4.8
1981-08-24 18:15:16.930 ,7,0,0.,4.8,0.,4.8,0.,4.8,0.,4.8
1981-08-24 18:15:21.730 ,7,0,0.,4.8,0.,4.8,0.,4.8,0.,4.8
1981-08-24 18:15:26.530 ,7,0,0.,4.8,0.,4.8,0.,4.8,0.,4.8
1981-08-24 18:15:31.330 ,7,0,0.,4.8,0.,4.8,0.,4.8,0.,4.8
1981-08-24 18:15:36.130 ,7,0,0.,4.8,0.,4.8,0.,4.8,0.,4.8
1981-08-24 18:15:40.930 ,7,0,0.,4.8,0.,4.8,0.,4.8,0.,4.8
1981-08-24 18:15:45.730 ,7,0,0.,4.8,0.,4.8,0.,4.8,0.,4.8
1981-08-24 18:15:50.530 ,7,0,0.,4.8,0.,4.8,0.,4.8,0.,4.8
1981-08-24 18:15:55.330 ,7,0,0.,4.8,0.,4.8,0.,4.8,0.,4.8
1981-08-24 18:16:00.130 ,7,0,0.,4.8,0.,4.8,0.,4.8,0.,4.8
1981-08-24 18:16:04.930 ,7,0,0.,4.8,0.,4.8,0.,4.8,0.,4.8
1981-08-24 18:16:09.730 ,7,0,0.,4.8,0.,4.8,0.,4.8,0.,4.8
1981-08-24 18:16:14.530 ,7,0,0.,4.8,0.,4.8,0.,4.8,0.,4.8
1981-08-24 18:16:19.330 ,7,0,0.,4.8,0.,4.8,0.,4.8,0.,4.8
1981-08-24 18:16:24.130 ,6,0,0.,4.8,0.,4.8,0.,4.8,0.,4.8
1981-08-24 18:16:28.930 ,6,0,0.,4.8,0.,4.8,0.,4.8,0.,4.8
1981-08-24 18:16:33.730 ,6,0,0.,4.8,0.,4.8,0.,4.8,0.,4.8
1981-08-24 18:16:38.530 ,6,0,0.,4.8,0.,4.8,0.,4.8,0.,4.8
1981-08-24 18:16:43.330 ,6,0,0.,4.8,0.,4.8,0.,4.8,0.,4.8
1981-08-24 18:16:48.130 ,5,0,0.,4.8,0.,4.8,0.,4.8,0.,4.8
1981-08-24 18:16:52.930 ,5,0,0.,4.8,0.,4.8,0.,4.8,0.,4.8
1981-08-24 18:16:57.730 ,5,0,0.,4.8,0.,4.8,0.,4.8,0.,4.8
1981-08-24 18:17:02.530 ,5,0,0.,4.8,0.,4.8,0.,4.8,0.,4.8
1981-08-24 18:17:07.330 ,5,0,0.,4.8,0.,4.8,0.,4.8,0.,4.8
1981-08-24 18:17:12.130 ,4,0,0.,4.8,0.,4.8,0.,4.8,0.,4.8
1981-08-24 18:17:16.930 ,4,0,0.,4.8,0.,4.8,0.,4.8,0.,4.8
1981-08-24 18:17:21.730 ,4,0,0.,4.8,0.,4.8,0.,4.8,0.,4.8
1981-08-24 18:17:26.530 ,4,0,0.,4.8,0.,4.8,0.,4.8,0.,4.8
1981-08-24 18:17:31.330 ,4,0,0.,4.8,0.,4.8,0.,4.8,0.,4.8
1981-08-24 18:17:36.130 ,3,0,0.,4.8,0.,4.8,0.,4.8,0.,4.8
1981-08-24 18:17:40.930 ,3,0,0.,4.8,0.,4.8,0.,4.8,0.,4.8
1981-08-24 18:17:45.730 ,3,0,0.,4.8,0.,4.8,0.,4.8,0.,4.8
1981-08-24 18:17:50.530 ,3,0,0.,4.8,0.,4.8,0.,4.8,0.,4.8
1981-08-24 18:17:55.330 ,3,0,0.,4.8,0.,4.8,0.,4.8,0.,4.8
1981-08-24 18:18:00.130 ,2,0,0.,4.8,0.,4.8,0.,4.8,0.,4.8
1981-08-24 18:18:04.930 ,2,0,0.,4.8,0.,4.8,0.,4.8,0.,4.8
1981-08-24 18:18:09.730 ,2,0,0.,4.8,0.,4.8,0.,4.8,0.,4.8
1981-08-24 18:18:14.530 ,2,0,0.,4.8,0.,4.8,0.,4.8,0.,4.8
1981-08-24 18:18:19.330 ,2,0,0.,4.8,0.,4.8,0.,4.8,0.,4.8
1981-08-24 18:18:24.130 ,1,0,0.,4.8,0.,4.8,0.,4.8,0.,4.8
1981-08-24 18:18:28.930 ,1,0,0.,4.8,0.,4.8,0.,4.8,0.,4.8
1981-08-24 18:18:33.730 ,1,0,0.,4.8,0.,4.8,0.,4.8,0.,4.8
1981-08-24 18:18:38.530 ,1,0,0.,4.8,0.,4.8,0.,4.8,0.,4.8
1981-08-24 18:18:43.330 ,1,0,0.,4.8,0.,4.8,0.,4.8,0.,4.8
1981-08-24 18:18:48.130 ,0,0,0.,4.8,0.,4.8,0.,4.8,0.,4.8
1981-08-24 18:18:52.930 ,0,0,0.,4.8,0.,4.8,0.,4.8,0.,4.8
1981-08-24 18:18:57.730 ,0,0,0.,4.8,0.,4.8,0.,4.8,0.,4.8
1981-08-24 18:19:02.530 ,0,0,0.,4.8,0.,4.8,0.,4.8,0.,4.8
1981-08-24 18:19:07.330 ,0,0,0.,4.8,0.,4.8,0.,4.8,0.,4.8
1981-08-24 18:19:12.130 ,0,0,0.,4.8,0.,4.8,0.,4.8,0.,4.8
1981-08-24 18:19:16.930 ,0,0,0.,4.8,0.,4.8,0.,4.8,0.,4.8
1981-08-24 18:19:21.730 ,0,0,0.,4.8,0.,4.8,0.,4.8,0.,4.8
1981-08-24 18:19:26.530 ,0,0,0.,4.8,0.,4.8,0.,4.8,0.,4.8
1981-08-24 18:19:31.330 ,0,0,0.,4.8,0.,4.8,0.,4.8,0.,4.8
1981-08-24 18:19:36.130 ,1,0,0.,4.8,0.,4.8,0.,4.8,0.,4.8
1981-08-24 18:19:40.930 ,1,0,0.,4.8,0.,4.8,0.,4.8,0.,4.8
1981-08-24 18:19:45.730 ,1,0,0.,4.8,0.,4.8,0.,4.8,0.,4.8
1981-08-24 18:19:50.530 ,1,0,0.,4.8,0.,4.8,0.,4.8,0.,4.8
1981-08-24 18:19:55.330 ,1,0,0.,4.8,0.,4.8,0.,4.8,0.,4.8
1981-08-24 18:20:00.130 ,2,0,0.,4.8,0.,4.8,0.,4.8,0.,4.8
1981-08-24 18:20:04.930 ,2,0,0.,4.8,0.,4.8,0.,4.8,0.,4.8
1981-08-24 18:20:09.730 ,2,0,0.,4.8,0.,4.8,0.,4.8,0.,4.8
1981-08-24 18:20:14.530 ,2,0,0.,4.8,0.,4.8,0.,4.8,0.,4.8
1981-08-24 18:20:19.330 ,2,0,0.,4.8,0.,4.8,0.,4.8,0.,4.8
1981-08-24 18:20:24.130 ,3,0,0.,4.8,0.,4.8,0.,4.8,0.,4.8
1981-08-24 18:20:28.930 ,3,0,0.,4.8,0.,4.8,0.,4.8,0.,4.8
1981-08-24 18:20:33.730 ,3,0,0.,4.8,0.,4.8,0.,4.8,0.,4.8
1981-08-24 18:20:38.530 ,3,0,0.,4.8,0.,4.8,0.,4.8,0.,4.8
1981-08-24 18:20:43.330 ,3,0,0.,4.8,0.,4.8,0.,4.8,0.,4.8
1981-08-24 18:20:48.130 ,4,0,0.,4.8,0.,4.8,0.,4.8,0.,4.8
1981-08-24 18:20:52.930 ,4,0,0.,4.8,0.,4.8,0.,4.8,0.,4.8
1981-08-24 18:20:57.730 ,4,0,0.,4.8,0.,4.8,0.,4.8,0.,4.8
1981-08-24 18:21:02.530 ,4,0,0.,4.8,0.,4.8,0.,4.8,0.,4.8
1981-08-24 18:21:07.330 ,4,0,0.,4.8,0.,4.8,0.,4.8,0.,4.8
1981-08-24 18:21:12.130 ,5,0,0.,4.8,0.,4.8,0.,4.8,0.,4.8
1981-08-24 18:21:16.930 ,5,0,0.,4.8,0.,4.8,0.,4.8,0.,4.8
1981-08-24 18:21:21.730 ,5,0,0.,4.8,0.,4.8,0.,4.8,0.,4.8
1981-08-24 18:21:26.530 ,5,0,0.,4.8,0.,4.8,0.,4.8,0.,4.8
1981-08-24 18:21:31.330 ,5,0,0.,4.8,0.,4.8,0.,4.8,0.,4.8
1981-08-24 18:21:36.130 ,6,0,0.,4.8,0.,4.8,0.,4.8,0.,4.8
1981-08-24 18:21:40.930 ,6,0,0.,4.8,0.,4.8,0.,4.8,0.,4.8
1981-08-24 18:21:45.730 ,6,0,0.,4.8,0.,4.8,0.,4.8,0.,4.8
1981-08-24 18:21:50.530 ,6,0,0.,4.8,0.,4.8,0.,4.8,0.,4.8
1981-08-24 18:21:55.330 ,6,0,0.,4.8,0.,4.8,0.,4.8,0.,4.8
1981-08-24 18:22:00.130 ,7,0,0.,4.8,0.,4.8,0.,4.8,0.,4.8
1981-08-24 18:22:04.930 ,7,0,0.,4.8,0.,4.8,0.,4.8,0.,4.8
1981-08-24 18:22:09.730 ,7,0,0.,4.8,0.,4.8,0.,4.8,0.,4.8
1981-08-24 18:22:14.530 ,7,0,0.,4.8,0.,4.8,0.,4.8,0.,4.8
1981-08-24 18:22:19.330 ,7,0,0.,4.8,0.,4.8,0.,4.8,0.,4.8
1981-08-24 18:22:24.130 ,7,0,0.,4.8,0.,4.8,0.,4.8,0.,4.8
1981-08-24 18:22:28.930 ,7,0,0.,4.8,0.,4.8,0.,4.8,0.,4.8
1981-08-24 18:22:33.730 ,7,0,0.,4.8,0.,4.8,0.,4.8,0.,4.8
1981-08-24 18:22:38.530 ,7,0,0.,4.8,0.,4.8,0.,4.8,0.,4.8
1981-08-24 18:22:43.330 ,7,0,0.,4.8,0.,4.8,0.,4.8,0.,4.8
1981-08-24 18:22:48.130 ,7,0,0.,4.8,0.,4.8,0.,4.8,0.,4.8
1981-08-24 18:22:52.930 ,7,0,0.,4.8,0.,4.8,0.,4.8,0.,4.8
1981-08-24 18:22:57.730 ,7,0,0.,4.8,0.,4.8,0.,4.8,0.,4.8
1981-08-24 18:23:02.530 ,7,0,0.,4.8,0.,4.8,0.,4.8,0.,4.8
1981-08-24 18:23:07.330 ,7,0,0.,4.8,0.,4.8,0.,4.8,0.,4.8
1981-08-24 18:23:12.130 ,6,0,0.,4.8,0.,4.8,0.,4.8,0.,4.8
1981-08-24 18:23:16.930 ,6,0,0.,4.8,0.,4.8,0.,4.8,0.,4.8
1981-08-24 18:23:21.730 ,6,0,0.,4.8,0.,4.8,0.,4.8,0.,4.8
1981-08-24 18:23:26.530 ,6,0,0.,4.8,0.,4.8,0.,4.8,0.,4.8
1981-08-24 18:23:31.330 ,6,0,0.,4.8,0.,4.8,0.,4.8,0.,4.8
1981-08-24 18:23:36.130 ,6,0,0.,4.8,0.,4.8,0.,4.8,0.,4.8
1981-08-24 18:23:40.930 ,6,0,0.,4.8,0.,4.8,0.,4.8,0.,4.8
1981-08-24 18:23:45.730 ,6,0,0.,4.8,0.,4.8,0.,4.8,0.,4.8
1981-08-24 18:23:50.530 ,6,0,0.,4.8,0.,4.8,0.,4.8,0.,4.8
1981-08-24 18:23:55.330 ,6,0,0.,4.8,0.,4.8,0.,4.8,0.,4.8
1981-08-24 18:24:00.130 ,5,0,0.,4.8,0.,4.8,0.,4.8,0.,4.8
1981-08-24 18:24:04.930 ,5,0,0.,4.8,0.,4.8,0.,4.8,0.,4.8
1981-08-24 18:24:09.730 ,5,0,0.,4.8,0.,4.8,0.,4.8,0.,4.8
1981-08-24 18:24:14.530 ,5,0,0.,4.8,0.,4.8,0.,4.8,0.,4.8
1981-08-24 18:24:19.330 ,5,0,0.,4.8,0.,4.8,0.,4.8,0.,4.8
1981-08-24 18:24:24.130 ,5,0,0.,4.8,0.,4.8,0.,4.8,0.,4.8
1981-08-24 18:24:28.930 ,5,0,0.,4.8,0.,4.8,0.,4.8,0.,4.8
1981-08-24 18:24:33.730 ,5,0,0.,4.8,0.,4.8,0.,4.8,0.,4.8
1981-08-24 18:24:38.530 ,5,0,0.,4.8,0.,4.8,0.,4.8,0.,4.8
1981-08-24 18:24:43.330 ,5,0,0.,4.8,0.,4.8,0.,4.8,0.,4.8
1981-08-24 18:24:48.130 ,4,0,0.,4.8,0.,4.8,0.,4.8,0.,4.8
1981-08-24 18:24:52.930 ,4,0,0.,4.8,0.,4.8,0.,4.8,0.,4.8
1981-08-24 18:24:57.730 ,4,0,0.,4.8,0.,4.8,0.,4.8,0.,4.8
1981-08-24 18:25:02.530 ,4,0,0.,4.8,0.,4.8,0.,4.8,0.,4.8
1981-08-24 18:25:07.330 ,4,0,0.,4.8,0.,4.8,0.,4.8,0.,4.8
1981-08-24 18:25:12.130 ,4,0,0.,4.8,0.,4.8,0.,4.8,0.,4.8
1981-08-24 18:25:16.930 ,4,0,0.,4.8,0.,4.8,0.,4.8,0.,4.8
1981-08-24 18:25:21.730 ,4,0,0.,4.8,0.,4.8,0.,4.8,0.,4.8
1981-08-24 18:25:26.530 ,4,0,0.,4.8,0.,4.8,0.,4.8,0.,4.8
1981-08-24 18:25:31.330 ,4,0,0.,4.8,0.,4.8,0.,4.8,0.,4.8
1981-08-24 18:25:36.130 ,3,0,0.,4.8,0.,4.8,0.,4.8,0.,4.8
1981-08-24 18:25:40.930 ,3,0,0.,4.8,0.,4.8,0.,4.8,0.,4.8
1981-08-24 18:25:45.730 ,3,0,0.,4.8,0.,4.8,0.,4.8,0.,4.8
1981-08-24 18:25:50.530 ,3,0,0.,4.8,0.,4.8,0.,4.8,0.,4.8
1981-08-24 18:25:55.330 ,3,0,0.,4.8,0.,4.8,0.,4.8,0.,4.8
1981-08-24 18:26:00.130 ,3,0,0.,4.8,0.,4.8,0.,4.8,0.,4.8
1981-08-24 18:26:04.930 ,3,0,0.,4.8,0.,4.8,0.,4.8,0.,4.8
1981-08-24 18:26:09.730 ,3,0,0.,4.8,0.,4.8,0.,4.8,0.,4.8
1981-08-24 18:26:14.530 ,3,0,0.,4.8,0.,4.8,0.,4.8,0.,4.8
1981-08-24 18:26:19.330 ,3,0,0.,4.8,0.,4.8,0.,4.8,0.,4.8
1981-08-24 18:26:24.130 ,2,0,0.,4.8,0.,4.8,0.,4.8,0.,4.8
1981-08-24 18:26:28.930 ,2,0,0.,4.8,0.,4.8,0.,4.8,0.,4.8
1981-08-24 18:26:33.730 ,2,0,0.,4.8,0.,4.8,0.,4.8,0.,4.8
1981-08-24 18:26:38.530 ,2,0,0.,4.8,0.,4.8,0.,4.8,0.,4.8
1981-08-24 18:26:43.330 ,2,0,0.,4.8,0.,4.8,0.,4.8,0.,4.8
1981-08-24 18:26:48.130 ,2,0,0.,4.8,0.,4.8,0.,4.8,0.,4.8
1981-08-24 18:26:52.930 ,2,0,0.,4.8,0.,4.8,0.,4.8,0.,4.8
1981-08-24 18:26:57.730 ,2,0,0.,4.8,0.,4.8,0.,4.8,0.,4.8
1981-08-24 18:27:02.530 ,2,0,0.,4.8,0.,4.8,0.,4.8,0.,4.8
1981-08-24 18:27:07.330 ,2,0,0.,4.8,0.,4.8,0.,4.8,0.,4.8
1981-08-24 18:27:12.130 ,1,0,0.,4.8,0.,4.8,0.,4.8,0.,4.8
1981-08-24 18:27:16.930 ,1,0,0.,4.8,0.,4.8,0.,4.8,0.,4.8
1981-08-24 18:27:21.730 ,1,0,0.,4.8,0.,4.8,0.,4.8,0.,4.8
1981-08-24 18:27:26.530 ,1,0,0.,4.8,0.,4.8,0.,4.8,0.,4.8
1981-08-24 18:27:31.330 ,1,0,0.,4.8,0.,4.8,0.,4.8,0.,4.8
1981-08-24 18:27:36.130 ,1,0,0.,4.8,0.,4.8,0.,4.8,0.,4.8
1981-08-24 18:27:40.930 ,1,0,0.,4.8,0.,4.8,0.,4.8,0.,4.8
1981-08-24 18:27:45.730 ,1,0,0.,4.8,0.,4.8,0.,4.8,0.,4.8
1981-08-24 18:27:50.530 ,1,0,0.,4.8,0.,4.8,0.,4.8,0.,4.8
1981-08-24 18:27:55.330 ,1,0,0.,4.8,0.,4.8,0.,4.8,0.,4.8
1981-08-24 18:28:00.130 ,0,0,0.,4.8,0.,4.8,0.,4.8,0.,4.8
1981-08-24 18:28:04.930 ,0,0,0.,4.8,0.,4.8,0.,4.8,0.,4.8
1981-08-24 18:28:09.730 ,0,0,0.,4.8,0.,4.8,0.,4.8,0.,4.8
1981-08-24 18:28:14.530 ,0,0,0.,4.8,0.,4.8,0.,4.8,0.,4.8
1981-08-24 18:28:19.330 ,0,0,0.,4.8,0.,4.8,0.,4.8,0.,4.8
1981-08-24 18:28:24.130 ,0,0,0.,4.8,0.,4.8,0.,4.8,0.,4.8
1981-08-24 18:28:28.930 ,0,0,0.,4.8,0.,4.8,0.,4.8,0.,4.8
1981-08-24 18:28:33.730 ,0,0,0.,4.8,0.,4.8,0.,4.8,0.,4.8
1981-08-24 18:28:38.530 ,0,0,0.,4.8,0.,4.8,0.,4.8,0.,4.8
1981-08-24 18:28:43.330 ,0,0,0.,4.8,0.,4.8,0.,4.8,0.,4.8
1981-08-24 18:28:48.130 ,0,0,0.,4.8,0.,4.8,0.,4.8,0.,4.8
1981-08-24 18:28:52.930 ,0,0,0.,4.8,0.,4.8,0.,4.8,0.,4.8
1981-08-24 18:28:57.730 ,0,0,0.,4.8,0.,4.8,0.,4.8,0.,4.8
1981-08-24 18:29:02.530 ,0,0,0.,4.8,0.,4.8,0.,4.8,0.,4.8
1981-08-24 18:29:07.330 ,0,0,0.,4.8,0.,4.8,0.,4.8,0.,4.8
1981-08-24 18:29:12.130 ,0,0,0.,4.8,0.,4.8,0.,4.8,0.,4.8
1981-08-24 18:29:16.930 ,0,0,0.,4.8,0.,4.8,0.,4.8,0.,4.8
1981-08-24 18:29:21.730 ,0,0,0.,4.8,0.,4.8,0.,4.8,0.,4.8
1981-08-24 18:29:26.530 ,0,0,0.,4.8,0.,4.8,0.,4.8,0.,4.8
1981-08-24 18:29:31.330 ,0,0,0.,4.8,0.,4.8,0.,4.8,0.,4.8
1981-08-24 18:29:36.130 ,1,0,0.,4.8,0.,4.8,0.,4.8,0.,4.8
1981-08-24 18:29:40.930 ,1,0,0.,4.8,0.,4.8,0.,4.8,0.,4.8
1981-08-24 18:29:45.730 ,1,0,0.,4.8,0.,4.8,0.,4.8,0.,4.8
1981-08-24 18:29:50.530 ,1,0,0.,4.8,0.,4.8,0.,4.8,0.,4.8
1981-08-24 18:29:55.330 ,1,0,0.,4.8,0.,4.8,0.,4.8,0.,4.8
1981-08-24 18:30:00.130 ,1,0,0.,4.8,0.,4.8,0.,4.8,0.,4.8
1981-08-24 18:30:04.930 ,1,0,0.,4.8,0.,4.8,0.,4.8,0.,4.8
1981-08-24 18:30:09.730 ,1,0,0.,4.8,0.,4.8,0.,4.8,0.,4.8
1981-08-24 18:30:14.530 ,1,0,0.,4.8,0.,4.8,0.,4.8,0.,4.8
1981-08-24 18:30:19.330 ,1,0,0.,4.8,0.,4.8,0.,4.8,0.,4.8
1981-08-24 18:30:24.130 ,2,0,0.,4.8,0.,4.8,0.,4.8,0.,4.8
1981-08-24 18:30:28.930 ,2,0,0.,4.8,0.,4.8,0.,4.8,0.,4.8
1981-08-24 18:30:33.730 ,2,0,0.,4.8,0.,4.8,0.,4.8,0.,4.8
1981-08-24 18:30:38.530 ,2,0,0.,4.8,0.,4.8,0.,4.8,0.,4.8
1981-08-24 18:30:43.330 ,2,0,0.,4.8,0.,4.8,0.,4.8,0.,4.8
1981-08-24 18:30:48.130 ,2,0,0.,4.8,0.,4.8,0.,4.8,0.,4.8
1981-08-24 18:30:52.930 ,2,0,0.,4.8,0.,4.8,0.,4.8,0.,4.8
1981-08-24 18:30:57.730 ,2,0,0.,4.8,0.,4.8,0.,4.8,0.,4.8
1981-08-24 18:31:02.530 ,2,0,0.,4.8,0.,4.8,0.,4.8,0.,4.8
1981-08-24 18:31:07.330 ,2,0,0.,4.8,0.,4.8,0.,4.8,0.,4.8
1981-08-24 18:31:12.130 ,3,0,0.,4.8,0.,4.8,0.,4.8,0.,4.8
1981-08-24 18:31:16.930 ,3,0,0.,4.8,0.,4.8,0.,4.8,0.,4.8
1981-08-24 18:31:21.730 ,3,0,0.,4.8,0.,4.8,0.,4.8,0.,4.8
1981-08-24 18:31:26.530 ,3,0,0.,4.8,0.,4.8,0.,4.8,0.,4.8
1981-08-24 18:31:31.330 ,3,0,0.,4.8,0.,4.8,0.,4.8,0.,4.8
1981-08-24 18:31:36.130 ,3,0,0.,4.8,0.,4.8,0.,4.8,0.,4.8
1981-08-24 18:31:40.930 ,3,0,0.,4.8,0.,4.8,0.,4.8,0.,4.8
1981-08-24 18:31:45.730 ,3,0,0.,4.8,0.,4.8,0.,4.8,0.,4.8
1981-08-24 18:31:50.530 ,3,0,0.,4.8,0.,4.8,0.,4.8,0.,4.8
1981-08-24 18:31:55.330 ,3,0,0.,4.8,0.,4.8,0.,4.8,0.,4.8
1981-08-24 18:32:00.130 ,4,0,0.,4.8,0.,4.8,0.,4.8,0.,4.8
1981-08-24 18:32:04.930 ,4,0,0.,4.8,0.,4.8,0.,4.8,0.,4.8
1981-08-24 18:32:09.730 ,4,0,0.,4.8,0.,4.8,0.,4.8,0.,4.8
1981-08-24 18:32:14.530 ,4,0,0.,4.8,0.,4.8,0.,4.8,0.,4.8
1981-08-24 18:32:19.330 ,4,0,0.,4.8,0.,4.8,0.,4.8,0.,4.8
1981-08-24 18:32:24.130 ,4,0,0.,4.8,0.,4.8,0.,4.8,0.,4.8
1981-08-24 18:32:28.930 ,4,0,0.,4.8,0.,4.8,0.,4.8,0.,4.8
1981-08-24 18:32:33.730 ,4,0,0.,4.8,0.,4.8,0.,4.8,0.,4.8
1981-08-24 18:32:38.530 ,4,0,0.,4.8,0.,4.8,0.,4.8,0.,4.8
1981-08-24 18:32:43.330 ,4,0,0.,4.8,0.,4.8,0.,4.8,0.,4.8
1981-08-24 18:32:48.130 ,5,0,0.,4.8,0.,4.8,0.,4.8,0.,4.8
1981-08-24 18:32:52.930 ,5,0,0.,4.8,0.,4.8,0.,4.8,0.,4.8
1981-08-24 18:32:57.730 ,5,0,0.,4.8,0.,4.8,0.,4.8,0.,4.8
1981-08-24 18:33:02.530 ,5,0,0.,4.8,0.,4.8,0.,4.8,0.,4.8
1981-08-24 18:33:07.330 ,5,0,0.,4.8,0.,4.8,0.,4.8,0.,4.8
1981-08-24 18:33:12.130 ,5,0,0.,4.8,0.,4.8,0.,4.8,0.,4.8
1981-08-24 18:33:16.930 ,5,0,0.,4.8,0.,4.8,0.,4.8,0.,4.8